TJREVERB (55128 NORAD) Tracking and Keplerian Element Data

This shows tracking and keplerian element data for the satellite.

Feedback or suggestion? Click here.




ElementValue
Catalog55128
NameTJREVERB
Epoch Orbit1356
Epoch Day85.07836509
Epoch Year2023
RAAN15.7963
Inclination51.638
Eccentricity0.000858
Argument of Perigee152.1295
Mean Anonmoly208.0162
Mean Motion15.66412013
Decay Rate0.00159843
L11 55128U 98067UV 23085.07836509 .00159843 00000+0 14814-2 0 9996
L22 55128 51.6380 15.7963 0008580 152.1295 208.0162 15.66412013 13566



Live tracking and technical data element details for TJREVERB (NORAD 55128). TJREVERB can be tracked NOW for your location showing map with azimuth and elevation plus other details from your city location.







IsCatalogInMostPopularTable: catalog: 55128, numindb: 13
Update: records affected: 1



GetName: 55128 TJREVERB

Hit Count: updated at: Mon, 27 Mar 2023 08:19:56 GMT